sat.trackr.live / text

‹ back to catalog

STARLINK-34663

NORAD 64807 · 2025-150T

PAYLOAD ACTIVE UNKNOWN

§ Identity

Operator
Country
US
Launch date
2025-07-16
Launch site
AFWTR
Launch vehicle
Mass (kg)
RCS (m²)

Purposes: comms

External: N2YO · Heavens-Above · Gunter

§ Orbital elements

Epoch: 2026-05-25T04:21:19.884096Z

Period
96.11 min
Inclination
70.0002°
Eccentricity
0.0003249
Mean motion
14.98337123 rev/d
Perigee alt
569.8 km
Apogee alt
574.3 km
Semi-major
6,950.2 km
B*
2.8291e-4
RAAN
301.6288°
Arg perigee
268.2545°
Mean anomaly
91.8242°
Rev number
4,797

§ Raw data

STARLINK-346631 64807U 25150T   26145.18148014  .00003285  00000+0  28291-3 0  99952 64807  70.0002 301.6288 0003249 268.2545  91.8242 14.98337123 47978

JSON: /api/v1/satellites/64807 · /tle

For live sub-satellite position, see the globe view (requires WebGL).

§ Visibility from observer

Set your observer location to see the next 7 days of passes ≥ 10°. The values pass through the URL so the page stays shareable.

No JS? Fill the form by hand. The geolocation button needs JavaScript.